Location: *
(40.7873°S, 98.7174°E)
Time: 12:47:53
(UTC+00:00)

Cosmos 192 - Visible Passes

Search period start: 26 September 2022 00:00
Search period end: 06 October 2022 00:00
Orbit: 700 x 713 km, 74.0° (Epoch: 25 September)

Date Brightness Start Highest point End Pass type
(mag) Time Alt. Az. Time Alt. Az. Time Alt. Az.
26 Sep 7.5 12:59:16 10° WSW 13:01:15 12° SW 13:03:15 10° SSW visible
26 Sep 7.1 19:55:35 10° SSE 19:58:40 16° SE 20:01:46 10° E visible
26 Sep 4.3 21:34:57 10° SSW 21:39:53 63° WNW 21:44:46 10° N visible
27 Sep 6.6 12:01:03 10° WNW 12:05:17 28° WSW 12:09:35 10° S visible
27 Sep 5.2 20:39:36 10° S 20:44:27 49° ESE 20:49:16 10° NE visible
27 Sep 5.7 22:21:27 10° SW 22:24:45 18° W 22:28:02 10° NW visible
28 Sep 6.7 19:44:58 10° S 19:48:42 21° ESE 19:52:25 10° ENE visible
28 Sep 4.5 21:24:55 10° SSW 21:29:41 47° WNW 21:34:26 10° N visible
29 Sep 7.1 11:51:26 10° WNW 11:55:16 22° WSW 11:59:09 10° S visible
29 Sep 4.6 20:29:23 10° SSW 20:34:22 66° ESE 20:39:17 10° NNE visible
29 Sep 6.0 22:12:08 10° WSW 22:14:27 13° W 22:16:46 10° WNW visible
30 Sep 6.3 19:34:30 10° S 19:38:42 26° ESE 19:39:12 26° ESE visible
30 Sep 5.3 21:14:57 10° SW 21:18:00 29° WSW 21:18:00 29° WSW visible
01 Oct 7.3 18:41:09 10° SE 18:42:42 11° SE 18:43:02 11° ESE visible
01 Oct 5.6 20:19:12 10° SSW 20:21:55 33° SSW 20:21:55 33° SSW visible
02 Oct 6.5 19:24:08 10° S 19:26:26 23° SSE 19:26:26 23° SSE visible
02 Oct 6.6 21:05:06 10° SW 21:05:20 11° SW 21:05:20 11° SW visible
03 Oct 7.3 18:30:01 10° SSE 18:31:13 13° SE 18:31:13 13° SE visible
03 Oct 6.5 20:09:05 10° SSW 20:10:09 16° SSW 20:10:09 16° SSW visible
04 Oct 6.8 19:13:49 10° S 19:15:06 17° S 19:15:06 17° S visible
05 Oct 7.3 18:19:19 10° SSE 18:20:11 13° SSE 18:20:11 13° SSE visible
05 Oct 6.9 19:59:01 10° SSW 19:59:08 11° SSW 19:59:08 11° SSW visible
